Time,TemperatureF,DewpointF,PressureIn,WindDirection,WindDirectionDegrees,WindSpeedMPH,WindSpeedGustMPH,Humidity,HourlyPrecipIn,Conditions,Clouds,dailyrainin,SoftwareType,DateUTC
2013-01-26 00:13:00,32.3,32.0,30.15,WNW,285,0.0,0.0,97,0.00,,,0.00,weatherlink.com 1.10,2013-01-26 05:13:00,
2013-01-26 00:28:00,32.4,32.0,30.15,WNW,286,0.0,0.0,97,0.00,,,0.00,weatherlink.com 1.10,2013-01-26 05:28:00,
2013-01-26 00:43:00,32.7,32.0,30.15,NNE,24,0.0,0.0,97,0.00,,,0.00,weatherlink.com 1.10,2013-01-26 05:43:00,
2013-01-26 00:58:00,33.0,33.0,30.15,NNE,22,0.0,0.0,98,0.00,,,0.00,weatherlink.com 1.10,2013-01-26 05:58:00,
2013-01-26 01:13:00,32.8,32.0,30.14,NNE,22,0.0,0.0,97,0.00,,,0.00,weatherlink.com 1.10,2013-01-26 06:13:00,
2013-01-26 01:28:00,32.8,32.0,30.15,NNE,22,0.0,0.0,97,0.00,,,0.00,weatherlink.com 1.10,2013-01-26 06:28:00,
2013-01-26 01:43:00,32.7,32.0,30.15,NNE,23,0.0,0.0,97,0.00,,,0.00,weatherlink.com 1.10,2013-01-26 06:43:00,
2013-01-26 01:58:00,32.7,32.0,30.15,NNE,22,0.0,0.0,97,0.00,,,0.00,weatherlink.com 1.10,2013-01-26 06:58:00,
2013-01-26 02:13:00,32.8,32.0,30.15,NNE,22,0.0,0.0,97,0.00,,,0.00,weatherlink.com 1.10,2013-01-26 07:13:00,
2013-01-26 02:28:00,32.9,32.0,30.15,NE,39,0.0,1.0,98,0.00,,,0.00,weatherlink.com 1.10,2013-01-26 07:28:00,
2013-01-26 02:43:00,33.0,33.0,30.15,NE,41,0.0,0.0,98,0.00,,,0.00,weatherlink.com 1.10,2013-01-26 07:43:00,
2013-01-26 02:58:00,33.0,33.0,30.15,NE,41,0.0,0.0,98,0.00,,,0.00,weatherlink.com 1.10,2013-01-26 07:58:00,
2013-01-26 03:13:00,33.0,33.0,30.15,NE,41,0.0,0.0,98,0.00,,,0.00,weatherlink.com 1.10,2013-01-26 08:13:00,
2013-01-26 03:28:00,33.0,33.0,30.16,ENE,63,0.0,1.0,98,0.00,,,0.00,weatherlink.com 1.10,2013-01-26 08:28:00,
2013-01-26 03:43:00,33.0,33.0,30.15,ENE,63,0.0,0.0,98,0.00,,,0.00,weatherlink.com 1.10,2013-01-26 08:43:00,
2013-01-26 04:13:00,33.0,33.0,30.16,ENE,63,0.0,0.0,98,0.00,,,0.00,weatherlink.com 1.10,2013-01-26 09:13:00,
2013-01-26 04:28:00,33.0,33.0,30.16,ENE,63,0.0,0.0,98,0.00,,,0.00,weatherlink.com 1.10,2013-01-26 09:28:00,
2013-01-26 04:58:00,32.9,32.0,30.15,ENE,74,0.0,0.0,98,0.00,,,0.00,weatherlink.com 1.10,2013-01-26 09:58:00,
2013-01-26 05:13:00,32.9,32.0,30.15,ENE,74,0.0,0.0,98,0.00,,,0.00,weatherlink.com 1.10,2013-01-26 10:13:00,
2013-01-26 05:28:00,32.8,32.0,30.15,ENE,74,0.0,0.0,98,0.00,,,0.00,weatherlink.com 1.10,2013-01-26 10:28:00,
2013-01-26 05:44:00,32.8,32.0,30.16,ENE,74,0.0,0.0,98,0.00,,,0.00,weatherlink.com 1.10,2013-01-26 10:44:00,
2013-01-26 05:58:00,32.9,32.0,30.16,West,278,0.0,1.0,98,0.01,,,0.01,weatherlink.com 1.10,2013-01-26 10:58:00,
2013-01-26 06:14:00,32.8,32.0,30.16,NW,310,0.0,0.0,98,0.01,,,0.01,weatherlink.com 1.10,2013-01-26 11:14:00,
2013-01-26 06:28:00,32.7,32.0,30.17,ESE,118,0.0,1.0,98,0.01,,,0.01,weatherlink.com 1.10,2013-01-26 11:28:00,
2013-01-26 06:44:00,32.5,32.0,30.18,ESE,123,0.0,0.0,98,0.01,,,0.01,weatherlink.com 1.10,2013-01-26 11:44:00,
2013-01-26 06:58:00,32.4,32.0,30.18,SE,124,0.0,0.0,98,0.00,,,0.01,weatherlink.com 1.10,2013-01-26 11:58:00,
2013-01-26 07:14:00,32.3,32.0,30.19,SE,128,0.0,1.0,98,0.00,,,0.01,weatherlink.com 1.10,2013-01-26 12:14:00,
2013-01-26 07:28:00,32.2,32.0,30.20,SE,128,0.0,1.0,98,0.00,,,0.01,weatherlink.com 1.10,2013-01-26 12:28:00,
2013-01-26 07:43:00,31.9,31.0,30.20,NW,307,0.0,1.0,98,0.00,,,0.01,weatherlink.com 1.10,2013-01-26 12:43:00,
2013-01-26 07:59:00,31.9,31.0,30.21,West,279,0.0,1.0,98,0.00,,,0.01,weatherlink.com 1.10,2013-01-26 12:59:00,
2013-01-26 08:14:00,31.8,31.0,30.21,West,279,0.0,0.0,98,0.00,,,0.01,weatherlink.com 1.10,2013-01-26 13:14:00,
2013-01-26 08:28:00,31.9,31.0,30.22,West,280,0.0,0.0,98,0.00,,,0.01,weatherlink.com 1.10,2013-01-26 13:28:00,
2013-01-26 08:43:00,32.1,32.0,30.22,West,280,0.0,0.0,98,0.00,,,0.01,weatherlink.com 1.10,2013-01-26 13:43:00,
2013-01-26 08:59:00,32.3,32.0,30.24,ESE,118,0.0,1.0,98,0.00,,,0.01,weatherlink.com 1.10,2013-01-26 13:59:00,
2013-01-26 09:14:00,32.5,32.0,30.24,SE,126,0.0,1.0,98,0.00,,,0.01,weatherlink.com 1.10,2013-01-26 14:14:00,
2013-01-26 09:29:00,32.7,32.0,30.25,NE,43,0.0,0.0,98,0.00,,,0.01,weatherlink.com 1.10,2013-01-26 14:29:00,
2013-01-26 09:44:00,32.7,32.0,30.25,NE,43,0.0,1.0,98,0.00,,,0.01,weatherlink.com 1.10,2013-01-26 14:44:00,
2013-01-26 09:59:00,32.9,32.0,30.26,East,91,1.0,2.0,97,0.00,,,0.01,weatherlink.com 1.10,2013-01-26 14:59:00,
2013-01-26 10:14:00,33.1,32.0,30.27,NE,49,0.0,1.0,96,0.00,,,0.01,weatherlink.com 1.10,2013-01-26 15:14:00,
2013-01-26 10:29:00,33.3,32.0,30.28,ENE,63,0.0,2.0,94,0.00,,,0.01,weatherlink.com 1.10,2013-01-26 15:29:00,
2013-01-26 10:44:00,33.5,32.0,30.28,SE,129,0.0,2.0,93,0.00,,,0.01,weatherlink.com 1.10,2013-01-26 15:44:00,
2013-01-26 10:59:00,33.6,32.0,30.29,SE,132,0.0,1.0,92,0.00,,,0.01,weatherlink.com 1.10,2013-01-26 15:59:00,
2013-01-26 11:14:00,33.9,32.0,30.29,SE,143,0.0,2.0,92,0.00,,,0.01,weatherlink.com 1.10,2013-01-26 16:14:00,
2013-01-26 11:29:00,33.7,31.0,30.29,NE,46,0.0,2.0,90,0.00,,,0.01,weatherlink.com 1.10,2013-01-26 16:29:00,
2013-01-26 11:44:00,34.2,32.0,30.29,SW,217,0.0,3.0,91,0.00,,,0.01,weatherlink.com 1.10,2013-01-26 16:44:00,
2013-01-26 11:59:00,34.3,32.0,30.28,East,96,1.0,3.0,90,0.00,,,0.01,weatherlink.com 1.10,2013-01-26 16:59:00,
2013-01-26 12:14:00,34.6,32.0,30.28,ENE,75,1.0,3.0,89,0.00,,,0.01,weatherlink.com 1.10,2013-01-26 17:14:00,
2013-01-26 12:29:00,35.1,33.0,30.28,NE,35,0.0,2.0,92,0.00,,,0.01,weatherlink.com 1.10,2013-01-26 17:29:00,
2013-01-26 12:44:00,35.7,33.0,30.28,NE,49,0.0,1.0,90,0.00,,,0.01,weatherlink.com 1.10,2013-01-26 17:44:00,
2013-01-26 12:59:00,35.9,32.0,30.28,SSE,156,0.0,2.0,87,0.00,,,0.01,weatherlink.com 1.10,2013-01-26 17:59:00,
2013-01-26 13:14:00,36.8,33.0,30.27,WNW,299,0.0,3.0,87,0.00,,,0.01,weatherlink.com 1.10,2013-01-26 18:14:00,
2013-01-26 13:29:00,37.3,33.0,30.27,NE,44,0.0,3.0,84,0.01,,,0.02,weatherlink.com 1.10,2013-01-26 18:29:00,
2013-01-26 13:44:00,37.4,33.0,30.26,WSW,250,0.0,2.0,84,0.01,,,0.02,weatherlink.com 1.10,2013-01-26 18:44:00,
2013-01-26 13:59:00,37.8,33.0,30.26,ESE,115,0.0,2.0,82,0.01,,,0.02,weatherlink.com 1.10,2013-01-26 18:59:00,
2013-01-26 14:14:00,38.5,33.0,30.26,NNW,328,0.0,2.0,81,0.01,,,0.02,weatherlink.com 1.10,2013-01-26 19:14:00,
2013-01-26 14:29:00,38.5,33.0,30.26,East,83,0.0,2.0,81,0.00,,,0.02,weatherlink.com 1.10,2013-01-26 19:29:00,
2013-01-26 14:44:00,39.2,34.0,30.25,NE,51,0.0,2.0,80,0.00,,,0.02,weatherlink.com 1.10,2013-01-26 19:44:00,
2013-01-26 14:59:00,39.9,34.0,30.25,ENE,77,0.0,2.0,79,0.00,,,0.02,weatherlink.com 1.10,2013-01-26 19:59:00,
2013-01-26 15:14:00,40.1,33.0,30.26,ENE,63,0.0,2.0,75,0.00,,,0.02,weatherlink.com 1.10,2013-01-26 20:14:00,
2013-01-26 15:30:00,40.5,33.0,30.26,NE,50,1.0,2.0,75,0.00,,,0.02,weatherlink.com 1.10,2013-01-26 20:30:00,
2013-01-26 15:44:00,41.3,34.0,30.26,West,269,0.0,1.0,75,0.00,,,0.02,weatherlink.com 1.10,2013-01-26 20:44:00,
2013-01-26 15:59:00,41.9,33.0,30.26,SE,128,0.0,1.0,71,0.00,,,0.02,weatherlink.com 1.10,2013-01-26 20:59:00,
2013-01-26 16:14:00,42.2,33.0,30.27,SSE,148,0.0,2.0,69,0.00,,,0.02,weatherlink.com 1.10,2013-01-26 21:14:00,
2013-01-26 16:29:00,42.4,33.0,30.27,SE,146,0.0,1.0,69,0.00,,,0.02,weatherlink.com 1.10,2013-01-26 21:29:00,
2013-01-26 16:44:00,42.0,33.0,30.27,SE,146,0.0,1.0,70,0.00,,,0.02,weatherlink.com 1.10,2013-01-26 21:44:00,
2013-01-26 16:59:00,42.1,34.0,30.27,SE,146,0.0,0.0,72,0.00,,,0.02,weatherlink.com 1.10,2013-01-26 21:59:00,
2013-01-26 17:14:00,42.3,33.0,30.27,SE,146,0.0,0.0,70,0.00,,,0.02,weatherlink.com 1.10,2013-01-26 22:14:00,
2013-01-26 17:30:00,42.6,34.0,30.27,SE,146,0.0,0.0,71,0.00,,,0.02,weatherlink.com 1.10,2013-01-26 22:30:00,
2013-01-26 17:45:00,41.7,34.0,30.27,SE,146,0.0,0.0,74,0.00,,,0.02,weatherlink.com 1.10,2013-01-26 22:45:00,
2013-01-26 18:00:00,40.3,34.0,30.28,SE,146,0.0,0.0,79,0.00,,,0.02,weatherlink.com 1.10,2013-01-26 23:00:00,
2013-01-26 18:15:00,39.2,35.0,30.29,SE,146,0.0,0.0,85,0.00,,,0.02,weatherlink.com 1.10,2013-01-26 23:15:00,
2013-01-26 18:30:00,37.4,34.0,30.29,SE,146,0.0,0.0,87,0.00,,,0.02,weatherlink.com 1.10,2013-01-26 23:30:00,
2013-01-26 18:45:00,35.9,33.0,30.30,SSE,147,0.0,0.0,90,0.00,,,0.02,weatherlink.com 1.10,2013-01-26 23:45:00,
2013-01-26 19:00:00,35.0,33.0,30.30,SSE,147,0.0,0.0,91,0.00,,,0.02,weatherlink.com 1.10,2013-01-27 00:00:00,
2013-01-26 19:15:00,33.7,32.0,30.31,SSE,148,0.0,0.0,92,0.00,,,0.02,weatherlink.com 1.10,2013-01-27 00:15:00,
2013-01-26 19:30:00,32.8,31.0,30.32,West,267,0.0,1.0,94,0.00,,,0.02,weatherlink.com 1.10,2013-01-27 00:30:00,
2013-01-26 19:45:00,31.9,30.0,30.32,West,267,0.0,1.0,94,0.00,,,0.02,weatherlink.com 1.10,2013-01-27 00:45:00,
2013-01-26 20:00:00,31.3,30.0,30.33,West,266,0.0,0.0,95,0.00,,,0.02,weatherlink.com 1.10,2013-01-27 01:00:00,
2013-01-26 20:15:00,30.8,30.0,30.33,West,267,0.0,0.0,95,0.00,,,0.02,weatherlink.com 1.10,2013-01-27 01:15:00,
2013-01-26 20:30:00,30.1,29.0,30.33,West,266,0.0,0.0,95,0.00,,,0.02,weatherlink.com 1.10,2013-01-27 01:30:00,
2013-01-26 20:45:00,29.9,29.0,30.34,West,267,0.0,0.0,96,0.00,,,0.02,weatherlink.com 1.10,2013-01-27 01:45:00,
2013-01-26 21:00:00,29.1,28.0,30.34,West,266,0.0,0.0,95,0.00,,,0.02,weatherlink.com 1.10,2013-01-27 02:00:00,
2013-01-26 21:15:00,28.8,28.0,30.34,West,267,0.0,0.0,96,0.00,,,0.02,weatherlink.com 1.10,2013-01-27 02:15:00,
2013-01-26 21:30:00,28.6,28.0,30.35,West,267,0.0,0.0,96,0.00,,,0.02,weatherlink.com 1.10,2013-01-27 02:30:00,
2013-01-26 21:45:00,28.2,27.0,30.35,West,267,0.0,0.0,96,0.00,,,0.02,weatherlink.com 1.10,2013-01-27 02:45:00,
2013-01-26 22:15:00,27.9,27.0,30.37,West,266,0.0,0.0,97,0.00,,,0.02,weatherlink.com 1.10,2013-01-27 03:15:00,
2013-01-26 22:31:00,27.4,27.0,30.37,West,266,0.0,0.0,97,0.00,,,0.02,weatherlink.com 1.10,2013-01-27 03:31:00,
2013-01-26 22:46:00,27.1,26.0,30.38,West,267,0.0,0.0,97,0.00,,,0.02,weatherlink.com 1.10,2013-01-27 03:46:00,
2013-01-26 23:00:00,27.1,26.0,30.38,West,267,0.0,0.0,97,0.00,,,0.02,weatherlink.com 1.10,2013-01-27 04:00:00,
2013-01-26 23:15:00,27.0,26.0,30.38,West,267,0.0,0.0,97,0.00,,,0.02,weatherlink.com 1.10,2013-01-27 04:15:00,
2013-01-26 23:30:00,26.5,26.0,30.39,West,267,0.0,0.0,97,0.00,,,0.02,weatherlink.com 1.10,2013-01-27 04:30:00,
2013-01-26 23:45:00,26.5,26.0,30.39,West,267,0.0,0.0,97,0.00,,,0.02,weatherlink.com 1.10,2013-01-27 04:45:00,